Location: Houston
(29.7630°N, 95.3630°W)
Time: 15:12:23
(UTC-06:00)

ISS - All Passes

Search period start: 22 November 2014 00:00
Search period end: 02 December 2014 00:00
Orbit: 408 x 417 km, 51.6° (Epoch: 22 November)

Date Brightness Start Highest point End Pass type
(mag) Time Alt. Az. Time Alt. Az. Time Alt. Az.
22 Nov - 00:09:33 10° SSW 00:12:45 56° SE 00:15:59 10° NE night (unlit)
22 Nov - 01:48:24 10° WNW 01:49:39 12° NW 01:50:54 10° NNW night (unlit)
22 Nov - 08:19:12 10° NNW 08:22:23 45° NE 08:25:34 10° ESE daylight
22 Nov - 09:58:15 10° WSW 09:58:41 10° SW 09:59:07 10° SW daylight
22 Nov - 23:20:26 10° S 23:23:12 25° SE 23:25:58 10° ENE night (unlit)
23 Nov - 00:57:19 10° W 00:59:48 20° NW 01:02:19 10° N night (unlit)
23 Nov - 07:29:55 10° NNW 07:32:38 23° NE 07:35:21 10° E daylight
23 Nov - 09:06:36 10° WNW 09:09:11 21° SW 09:11:45 10° S daylight
23 Nov - 22:32:13 10° SSE 22:33:39 12° SE 22:35:05 10° E night (unlit)
24 Nov - 00:06:56 10° WSW 00:10:00 37° NW 00:13:05 10° NNE night (unlit)
24 Nov - 06:41:01 10° N 06:42:45 14° NE 06:44:30 10° ENE daylight
24 Nov - 08:16:23 10° WNW 08:19:34 45° SW 08:22:44 10° SSE daylight
24 Nov - 23:16:57 10° SW 23:20:13 82° NW 23:23:31 10° NE night (unlit)
25 Nov - 07:26:32 10° NW 07:29:50 78° NE 07:33:08 10° SE daylight
25 Nov - 22:27:21 10° SSW 22:30:28 42° SE 22:33:36 10° ENE night (unlit)
26 Nov - 00:05:27 10° WNW 00:07:15 14° NW 00:09:03 10° N night (unlit)
26 Nov - 06:36:55 10° NNW 06:39:59 35° NE 06:43:03 10° ESE daylight
26 Nov - 08:14:44 10° W 08:16:21 13° SW 08:17:58 10° SSW daylight
26 Nov - 21:38:15 10° S 21:40:44 20° SE 21:43:13 10° ENE night (unlit)
26 Nov - 23:14:30 10° W 23:17:14 24° NW 23:19:59 10° NNE night (unlit)
27 Nov - 05:47:33 10° N 05:50:00 19° NE 05:52:28 10° E visible
27 Nov - 07:23:47 10° WNW 07:26:37 27° SW 07:29:27 10° S daylight
27 Nov - 22:24:04 10° WSW 22:27:15 47° NW 22:30:27 10° NNE night (unlit)
28 Nov - 04:58:48 10° NNE 04:59:53 11° NE 05:00:59 10° NE visible
28 Nov - 06:33:32 10° NW 06:36:47 61° SW 06:40:02 10° SSE daylight
28 Nov - 21:34:02 10° SW 21:37:18 75° SE 21:40:35 10° NE night (unlit)
29 Nov - 05:43:35 10° NW 05:46:50 58° NE 05:50:04 10° SE visible
29 Nov - 20:44:24 10° SSW 20:47:22 32° SE 20:50:20 10° ENE night (unlit)
29 Nov - 22:21:49 10° W 22:24:02 17° NW 22:26:16 10° N night (unlit)
30 Nov - 04:53:52 10° NNW 04:56:45 28° NE 04:59:38 10° ESE visible
30 Nov - 06:30:59 10° W 06:33:11 17° SW 06:35:24 10° S visible
30 Nov - 19:55:26 10° SSE 19:57:27 15° SE 19:59:28 10° E night (unlit)
30 Nov - 21:30:54 10° WSW 21:33:51 30° NW 21:36:48 10° NNE night (unlit)
01 Dec - 04:04:27 10° N 04:06:32 16° NE 04:08:38 10° ENE visible
01 Dec - 05:40:12 10° WNW 05:43:15 35° SW 05:46:17 10° SSE visible
01 Dec - 20:40:26 10° SW 20:43:41 64° NW 20:46:57 10° NE night (unlit)
